Weather in Zangilan

Azerbaijan     39°05′02″N   46°39′40″E
temp.,
°C
wind,
m/s
gust,
m/s
humid.,
%
clouds,
%
prec.,
mm/h
press.,
hPa
HPBL,
m
17 april, sat
sat1701:00+12sw116411 0.0 102110
04:00+11ssw22646 0.0 102011
07:00+12ssw116010 0.0 102110
10:00+18n21475 0.0 1020484
13:00+22nne32385 0.0 10181100
16:00+23nne43365 0.0 10161234
19:00+18n23525 0.0 101746
22:00+14sw22617 0.0 101913
18 april, sun
sun1801:00+14ssw11625 0.0 101911
04:00+13ssw21628 0.0 101810
07:00+14ssw116073 0.0 101810
10:00+19nnw2148100 0.0 1018464
13:00+23nne323792 0.0 1015908
16:00+24nne4338100 0.0 10131011
19:00+19nne2257100 0.0 101523
22:00+16n1165100 0.0 101714
19 april, mon
mon1901:00+15sse1168100 0.0 101811
04:00+13ssw2273100 0.0 101814
07:00+14sw1171100 0.0 101913
10:00+19n1152100 0.0 1018545
13:00+24nne3340100 0.0 10151147
16:00+25nne4337100 0.0 10131252
19:00+20nne2357100 0.0 101552
22:00+17sw226897 0.0 101712
20 april, tue
tue2001:00+16ssw116510 0.0 101611
04:00+17ssw215696 0.0 101415
07:00+18ssw1152100 0.0 101414
10:00+23n1141100 0.0 1013406
13:00+26nne323885 0.0 1011643
16:00+27n4437100 0.0 1009873
19:00+22nnw1258100 0.0 101022
22:00+20ssw2247100 0.0 101023
21 april, wed
wed2101:00+20ssw3238100 0.0 101030
04:00+18se014779 0.0 101213
07:00+17wsw116165 0.0 101415
10:00+23nw124799 0.0 1012401
13:00+28nne433458 0.0 1010882
16:00+23n7754100 0.3 1013917
19:00+17nnw117697 0.4 1014144
22:00+16nne017997 0.4 101411